Overview Statistics Trail Chart Weather Telemetry Raw packets
 

This is the latest recevied weather packets stored in our database for station/object KCDH. If no packets are shown the sender has not sent any weather packets the latest 10 day(s).

<< 1 2 3 4 5 >>
Time Temp. Humidity Pressure Rain* Wind** Luminosity Snow
1788563008 36.67° C 39% 1011.2 hPa - - - -
1788562408 36.67° C 37% 1011.2 hPa - - - -
1788561805 36.67° C 37% 1011.2 hPa - - - -
1788561207 35° C 44% 1011.2 hPa - - - -
1788560606 35° C 44% 1011.2 hPa - - - -
1788560006 35° C 44% 1011.5 hPa - - - -
1788559407 35° C 44% 1011.5 hPa - - - -
1788558806 33.89° C 46% 1011.5 hPa - - - -
1788558205 33.89° C 46% 1011.5 hPa - - - -
1788557605 33.89° C 46% 1011.9 hPa - - - -
1788557005 33.89° C 46% 1011.9 hPa - - - -
1788556405 37.78° C 33% 1011.5 hPa - - - -
1788555807 37.78° C 33% 1011.5 hPa - - - -
1788555207 37.78° C 33% 1011.9 hPa - - - -
1788554606 37.78° C 33% 1011.9 hPa - - - -
1788554004 37.78° C 33% 1012.2 hPa - - - -
1788553405 37.78° C 33% 1012.2 hPa - - - -
1788552806 35.56° C 37% 1012.5 hPa - - - -
1788552207 35.56° C 37% 1012.5 hPa - - - -
1788551607 36.67° C 37% 1012.9 hPa - - - -
1788551007 36.67° C 37% 1012.9 hPa - - - -
1788550407 36.67° C 37% 1012.9 hPa - - - -
1788549805 36.67° C 37% 1012.9 hPa - - - -
1788549205 35.56° C 39% 1013.2 hPa - - - -
1788548609 35.56° C 39% 1013.2 hPa - - - -

* Rain since midnight (hover to see other rain measurements)
** Current wind speed in m/s (hover to see current wind gust speed)